This is the latest recevied weather packets stored in our database for station/object K5GTX. If no packets are shown the sender has not sent any weather packets the latest 10 day(s).
| Time | Temp. | Humidity | Pressure | Rain* | Wind** | Luminosity | Snow |
|---|---|---|---|---|---|---|---|
| 1777765934 | 25.56° C | 99% | 1024.8 hPa | 0 mm | - | 119 W/m² | - |
| 1777765630 | 26.11° C | 99% | 1024.5 hPa | 0 mm | - | 122 W/m² | - |
| 1777765327 | 25° C | 99% | 1024.7 hPa | 0 mm | - | 147 W/m² | - |
| 1777765023 | 25° C | 99% | 1024.7 hPa | 0 mm | - | 135 W/m² | - |
| 1777764720 | 25.56° C | 99% | 1024.8 hPa | 0 mm | - | 159 W/m² | - |
| 1777764415 | 25.56° C | 99% | 1025.1 hPa | 0 mm | - | 184 W/m² | - |
| 1777764113 | 25° C | 99% | 1024.9 hPa | 0 mm | - | 192 W/m² | - |
| 1777763809 | 25° C | 99% | 1025 hPa | 0 mm | - | 207 W/m² | - |
| 1777763507 | 24.44° C | 99% | 1025 hPa | 0 mm | - | 213 W/m² | - |
| 1777763206 | 23.89° C | 99% | 1025.1 hPa | 0 mm | - | 69 W/m² | - |
| 1777762904 | 25° C | 99% | 1025.5 hPa | 0 mm | - | 264 W/m² | - |
| 1777762599 | 25.56° C | 99% | 1025 hPa | 0 mm | - | 269 W/m² | - |
| 1777762297 | 25° C | 99% | 1025 hPa | 0 mm | - | 300 W/m² | - |
| 1777761993 | 25.56° C | 99% | 1025.1 hPa | 0 mm | - | 324 W/m² | - |
| 1777761689 | 25.56° C | 99% | 1025.2 hPa | 0 mm | - | 314 W/m² | - |
| 1777761387 | 25° C | 99% | 1025.2 hPa | 0 mm | - | 309 W/m² | - |
| 1777761085 | 25° C | 99% | 1025.2 hPa | 0 mm | - | 196 W/m² | - |
| 1777760782 | 24.44° C | 99% | 1025.4 hPa | 0 mm | - | 363 W/m² | - |
| 1777760479 | 23.89° C | 99% | 1025.2 hPa | 0 mm | - | 82 W/m² | - |
| 1777760174 | 23.89° C | 99% | 1025.5 hPa | 0 mm | - | 78 W/m² | - |
| 1777759872 | 24.44° C | 99% | 1025.4 hPa | 0 mm | - | 110 W/m² | - |
| 1777759569 | 24.44° C | 99% | 1025.7 hPa | 0 mm | - | 401 W/m² | - |
| 1777759264 | 24.44° C | 99% | 1025.5 hPa | 0 mm | - | 437 W/m² | - |
| 1777758962 | 24.44° C | 99% | 1025.6 hPa | 0 mm | - | 405 W/m² | - |
| 1777758659 | 25° C | 99% | 1025.9 hPa | 0 mm | - | 450 W/m² | - |
* Rain latest hour (hover to see other rain measurements)
** Current wind speed in m/s (hover to see current wind gust speed)